Starlink 32907

operational
NORAD ID: 63095 Int'l Des: 2025-037 Owner: SPXS Country: US Constellation: starlink
LEOCIRCULAR

About Starlink 32907

Description loading...

Live Position

Loading 3D Globe...

Upcoming Passes

Altitude History

Altitude vs Time

uPlot chart will show altitude changes over time

Two-Line Element Set

1 63095U 25037U 25351.59571287 -.00005181 00000-0 -42676-3 0 9995
2 63095 69.9993 201.4981 0003061 267.4018 92.6790 14.98327391 46250
Epoch: Dec 17, 2025 • Age: 9 hours

Current Status

Altitude 575.9 km
Velocity 7.57 km/s
Sub-Earth Point -10.44°S, 49.8°W
Launch Date Feb 23, 2025
Age 0.8 years
Type internet

Technical Details

Classification Payload
Mass 730.00 kg
Dry Mass 700.00 kg
Total Mass 730.00 kg
Length 0.30 m
Diameter 4.10 m
Span 29.00 m
Shape Box + pan
Manufacturer SPXS
Bus Type Starlink V2M
Phase Status In Orbit
Owner/State SPXS/US

Large Constellations

Loading constellations...